Simultaneous Nadir Overpasses (SNOs) Predictions

Prediction of SNOs between GOES-16 and TERRA Satellite Orbit:

Table of predicted SNOs for the next 14.0 days since TLE Epoch: 1/11/2020
Index Date Time (GOES-16) GOES-16 Lat,Lon TERRA Lat,Lon Distance(km) Time Diff (sec)
1 01/12/2020 15:20:10 0.01, -75.23 -0.63, -72.30 334.44 80
2 01/13/2020 03:38:54 -0.01, -75.22 -0.49, -77.48 257.25 80
3 01/15/2020 03:29:23 -0.01, -75.24 0.16, -74.53 81.38 80
4 01/17/2020 03:17:11 -0.02, -75.27 0.75, -71.57 420.50 80
5 01/17/2020 15:35:46 0.01, -75.29 0.31, -76.73 163.53 80
6 01/19/2020 15:26:15 0.01, -75.32 -0.34, -73.78 176.16 80
7 01/20/2020 03:44:59 -0.00, -75.32 -0.78, -78.97 414.97 80
8 01/22/2020 03:32:48 -0.00, -75.36 -0.14, -76.01 74.80 80
9 01/24/2020 03:23:17 -0.01, -75.40 0.50, -73.06 265.99 80
10 01/24/2020 15:41:53 -0.00, -75.42 0.57, -78.22 317.85 80




NCC Satellite Simultaneous Nadir Overpasses (SNOs) Prediction Service
